Stations météo

réclame
Mon MeteoGroup
Cap Ferret, France (7500): Température de l'air & dewpoint: 16.09.2018 07:00:00 - 22.09.2018 07:00:00 (CEST)Cap Ferret, France (7500): Vitesse du vent & gusts: 16.09.2018 07:00:00 - 22.09.2018 07:00:00 (CEST)Cap Ferret, France (7500): Direction du vent: 16.09.2018 07:00:00 - 22.09.2018 07:00:00 (CEST)Cap Ferret, France (7500): reduced air pressure: 16.09.2018 07:00:00 - 22.09.2018 07:00:00 (CEST)Cap Ferret, France (7500): visibility: 16.09.2018 07:00:00 - 22.09.2018 07:00:00 (CEST)Cap Ferret, France (7500): Quantités de précipitations: 16.09.2018 07:00:00 - 22.09.2018 07:00:00 (CEST)
Date & Time tt [°C] td [°C] ff [km/h] ff [knt] fx [km/h] fx [knt] dd ppp [hPa] vv [km] rr [mm]
22.09.2018 07:00:00 13,9 10,3 9 5 16 9 ENE 1024,1 - 0,0
22.09.2018 06:00:00 14,3 10,1 10 5 18 10 E 1023,8 - 0,0
22.09.2018 05:00:00 14,6 11,6 9 5 16 9 ENE 1024,2 10 0,0
22.09.2018 04:00:00 14,8 11,9 8 5 13 7 ENE 1024,7 - 0,0
22.09.2018 03:00:00 15,0 12,1 7 4 14 8 ENE 1024,9 - 0,0
22.09.2018 02:00:00 15,3 12,2 7 4 19 10 ENE 1025,4 10 0,0
22.09.2018 01:00:00 15,7 11,9 10 5 18 10 NNE 1025,4 - 0,0
22.09.2018 00:00:00 15,6 12,7 12 6 17 9 NNE 1025,2 - 0,0
21.09.2018 23:00:00 15,3 12,2 8 4 14 8 NNE 1024,8 15 0,0
21.09.2018 22:00:00 15,8 12,5 7 4 13 7 NNE 1024,6 - 0,0
21.09.2018 21:00:00 16,9 12,0 10 5 17 9 NNE 1024,2 - 0,0
21.09.2018 20:00:00 17,5 12,8 10 5 25 13 N 1023,5 10 0,0
21.09.2018 19:00:00 18,6 13,7 13 7 29 15 N 1022,9 - 0,0
21.09.2018 18:00:00 18,9 15,0 13 7 22 12 N 1022,5 - 0,0
21.09.2018 17:00:00 19,3 16,3 8 4 16 9 NW 1022,1 7 0,0
21.09.2018 16:00:00 19,1 16,5 9 5 16 9 NNW 1021,7 - 0,0
21.09.2018 15:00:00 18,3 16,5 9 5 26 14 NNW 1021,3 - 0,4
21.09.2018 14:00:00 18,4 17,1 14 8 27 15 NNW 1021,0 5 1,2
21.09.2018 13:00:00 18,4 16,7 14 7 39 21 N 1020,7 - 0,0
21.09.2018 12:00:00 19,8 17,0 17 9 35 19 N 1020,2 - 0,0
21.09.2018 11:00:00 20,6 17,8 19 10 29 16 SW 1019,3 7 0,0
21.09.2018 10:00:00 19,7 17,8 18 10 28 15 SW 1018,7 - 0,0
21.09.2018 09:00:00 19,6 18,6 18 10 27 15 SSW 1018,1 - 0,0
21.09.2018 08:00:00 19,2 18,2 16 8 22 12 SSW 1017,4 4,0 0,0
21.09.2018 07:00:00 19,1 17,9 14 7 23 12 SW 1016,9 - 0,0
21.09.2018 06:00:00 19,1 17,9 16 9 26 14 SW 1016,4 - 0,0
21.09.2018 05:00:00 19,3 18,1 17 9 25 13 WSW 1016,5 7 0,0
21.09.2018 04:00:00 19,0 17,8 15 8 20 11 SW 1016,8 - 0,0
21.09.2018 03:00:00 19,1 17,9 13 7 19 10 SW 1016,8 - 0,0
21.09.2018 02:00:00 18,7 17,4 10 5 16 9 SW 1016,7 6 0,0
21.09.2018 01:00:00 18,8 17,5 13 7 17 9 WSW 1017,0 - 0,0
21.09.2018 00:00:00 18,4 16,6 7 4 16 9 W 1017,1 - 0,0
20.09.2018 23:00:00 18,9 17,0 14 8 17 9 NW 1017,2 8 0,0
20.09.2018 22:00:00 18,9 15,9 10 5 14 8 NW 1017,1 - 0,0
20.09.2018 21:00:00 19,8 16,4 11 6 27 15 NNE 1016,1 - 0,0
20.09.2018 20:00:00 20,6 17,2 16 8 33 18 N 1016,2 6 0,0
20.09.2018 19:00:00 21,9 17,5 19 10 36 19 NNW 1016,5 - 0,0
20.09.2018 18:00:00 23,4 17,4 17 9 36 20 NNW 1016,5 - 0,0
20.09.2018 17:00:00 24,0 17,3 23 13 40 21 NNW 1016,8 7 0,0
20.09.2018 16:00:00 24,1 17,3 26 14 38 20 NNW 1017,2 - 0,0
20.09.2018 15:00:00 24,2 17,0 22 12 36 19 NNW 1017,8 - 0,0
20.09.2018 14:00:00 25,5 16,4 16 9 25 14 NW 1018,4 12 0,0
20.09.2018 13:00:00 25,7 15,7 14 7 20 11 NNE 1019,3 - 0,0
20.09.2018 12:00:00 25,3 15,9 9 5 18 10 NE 1020,1 - 0,0
20.09.2018 11:00:00 23,1 16,4 7 4 14 8 ENE 1020,5 15 0,0
20.09.2018 10:00:00 21,2 15,9 9 5 15 8 ENE 1020,7 - 0,0
20.09.2018 09:00:00 18,7 16,1 6 3 12 7 ENE 1020,6 - 0,0
20.09.2018 08:00:00 16,5 15,0 8 4 13 7 ENE 1020,7 8 0,0
20.09.2018 07:00:00 16,7 14,9 8 4 14 8 ENE 1020,7 - 0,0
20.09.2018 06:00:00 17,5 15,7 11 6 16 9 NE 1021,1 - 0,0
20.09.2018 05:00:00 17,8 16,1 9 5 13 7 ENE 1021,5 8 0,0
20.09.2018 04:00:00 18,0 16,2 8 4 10 5 ENE 1021,9 - 0,0
20.09.2018 03:00:00 18,1 16,1 7 4 13 7 NNE 1022,0 - 0,0
20.09.2018 02:00:00 18,3 16,5 8 4 16 9 N 1022,1 7 0,0
20.09.2018 01:00:00 18,6 16,9 12 6 17 9 NNW 1022,1 - 0,0
20.09.2018 00:00:00 18,6 16,2 11 6 15 8 N 1022,1 - 0,0
19.09.2018 23:00:00 19,1 16,7 10 5 27 14 N 1022,0 7 0,0
19.09.2018 22:00:00 19,6 16,8 16 9 29 16 NNW 1021,8 - 0,0
19.09.2018 21:00:00 19,9 16,1 18 10 32 17 NNW 1021,0 - 0,0
19.09.2018 20:00:00 20,6 16,6 16 9 29 16 NNW 1020,9 7 0,0
19.09.2018 19:00:00 22,0 16,7 19 10 35 19 NNW 1021,0 - 0,0
19.09.2018 18:00:00 23,1 17,6 19 10 34 18 NNW 1021,0 - 0,0
19.09.2018 17:00:00 24,1 17,1 16 9 31 17 NNW 1020,9 - 0,0
19.09.2018 16:00:00 24,4 17,4 20 11 32 17 NNW 1021,4 - 0,0
19.09.2018 15:00:00 25,1 16,8 19 10 29 16 NNW 1021,7 - 0,0
19.09.2018 14:00:00 23,7 17,0 15 8 22 12 NW 1022,1 10 0,0
19.09.2018 13:00:00 24,0 17,0 11 6 17 9 WNW 1022,1 - 0,0
19.09.2018 12:00:00 23,4 16,9 7 4 11 6 W 1022,0 - 0,0
19.09.2018 11:00:00 22,3 16,6 2 1 10 6 SE 1022,0 10 0,0
19.09.2018 10:00:00 20,7 16,5 6 3 9 5 ENE 1021,5 - 0,0
19.09.2018 09:00:00 19,0 16,6 4 2 9 5 ENE 1021,0 - 0,0
19.09.2018 08:00:00 18,9 17,0 6 4 14 7 ENE 1020,3 10 0,0
19.09.2018 07:00:00 18,7 17,5 11 6 14 7 NE 1019,9 - 0,0
19.09.2018 06:00:00 17,0 15,3 9 5 13 7 NNE 1019,7 - 0,0
19.09.2018 05:00:00 17,0 15,2 10 5 11 6 NE 1019,7 10 0,0
19.09.2018 04:00:00 17,8 15,8 9 5 12 7 NE 1019,6 - 0,0
19.09.2018 03:00:00 18,8 16,6 9 5 12 7 NNE 1020,2 - 0,0
19.09.2018 02:00:00 19,0 17,0 8 5 14 7 N 1020,2 7 0,0
19.09.2018 01:00:00 18,4 16,2 9 5 11 6 N 1019,9 - 0,0
19.09.2018 00:00:00 18,9 16,7 8 4 15 8 N 1019,4 - 0,0
18.09.2018 23:00:00 19,4 16,6 11 6 22 12 N 1019,1 7 0,0
18.09.2018 22:00:00 20,1 16,1 9 5 26 14 NNE 1018,5 - 0,0
18.09.2018 21:00:00 20,2 17,2 14 8 28 15 N 1018,0 - 0,0
18.09.2018 20:00:00 20,8 17,2 19 10 37 20 N 1017,3 7 0,0
18.09.2018 19:00:00 22,0 17,6 22 12 40 22 NNW 1016,7 - 0,0
18.09.2018 18:00:00 23,4 17,4 22 12 39 21 NNW 1016,4 - 0,0
18.09.2018 17:00:00 25,1 17,0 21 11 37 20 NNW 1016,6 12 0,0
18.09.2018 16:00:00 25,3 17,5 19 11 35 19 NNW 1016,5 - 0,0
18.09.2018 15:00:00 26,3 17,6 18 10 34 19 NNW 1016,6 - 0,0
18.09.2018 14:00:00 26,0 17,6 10 5 22 12 N 1016,9 15 0,0
18.09.2018 13:00:00 25,1 18,1 13 7 23 12 NNE 1017,0 - 0,0
18.09.2018 12:00:00 23,8 18,2 14 8 23 12 NE 1017,1 - 0,0
18.09.2018 11:00:00 22,5 17,8 11 6 20 11 NE 1017,2 7 0,0
18.09.2018 10:00:00 20,7 17,7 11 6 22 12 N 1016,8 - 0,0
18.09.2018 09:00:00 20,0 18,0 12 6 17 9 ENE 1015,7 - 0,0
18.09.2018 08:00:00 19,3 17,3 8 5 14 7 N 1016,1 15 0,0
18.09.2018 07:00:00 19,6 17,2 7 4 15 8 WNW 1015,8 - 0,0
18.09.2018 06:00:00 20,3 18,1 8 5 16 8 E 1015,3 - 0,0
18.09.2018 05:00:00 20,6 18,2 10 6 19 10 NNW 1014,3 10 0,0
18.09.2018 04:00:00 21,0 18,8 13 7 26 14 NNE 1014,4 - 0,0
18.09.2018 03:00:00 21,2 18,4 10 5 20 11 NW 1015,1 - 0,0
18.09.2018 02:00:00 21,0 18,0 13 7 34 18 WNW 1015,7 10 0,0
18.09.2018 01:00:00 21,2 17,6 29 15 36 20 W 1015,1 - 0,0
18.09.2018 00:00:00 21,5 16,7 24 13 43 23 W 1014,6 - 0,0
17.09.2018 23:00:00 20,9 15,2 5 3 18 10 E 1014,0 15 0,0
17.09.2018 22:00:00 21,8 15,6 12 6 18 10 NW 1013,6 - 0,0
17.09.2018 21:00:00 23,0 16,1 10 6 13 7 WNW 1012,9 - 0,0
17.09.2018 20:00:00 25,6 16,7 8 5 11 6 W 1012,3 25 0,0
17.09.2018 19:00:00 28,3 16,6 9 5 19 10 WSW 1012,7 - 0,0
17.09.2018 18:00:00 30,1 16,1 11 6 23 12 SW 1013,0 - 0,0
17.09.2018 17:00:00 31,1 16,7 14 8 23 13 SW 1013,4 25 0,0
17.09.2018 16:00:00 31,7 16,8 12 6 22 12 SW 1013,8 - 0,0
17.09.2018 15:00:00 31,9 16,6 10 5 29 16 SSW 1014,3 - 0,0
17.09.2018 14:00:00 29,4 16,9 13 7 26 14 SE 1015,0 15 0,0
17.09.2018 13:00:00 26,3 17,6 14 8 27 15 ESE 1015,7 - 0,0
17.09.2018 12:00:00 23,5 17,3 13 7 21 11 ESE 1016,6 - 0,0
17.09.2018 11:00:00 21,6 16,8 5 3 26 14 ENE 1017,2 15 0,0
17.09.2018 10:00:00 19,0 16,2 13 7 23 12 SE 1017,3 - 0,0
17.09.2018 09:00:00 17,5 16,2 11 6 21 12 SE 1017,5 - 0,0
17.09.2018 08:00:00 16,0 14,9 10 6 18 10 ESE 1017,6 - 0,0
17.09.2018 07:00:00 15,5 14,4 7 4 13 7 E 1017,8 - 0,0
17.09.2018 06:00:00 14,9 13,4 8 4 11 6 E 1018,6 - 0,0
17.09.2018 05:00:00 14,6 13,0 6 4 9 5 ENE 1018,7 8 0,0
17.09.2018 04:00:00 15,2 13,7 2 1 7 4 NE 1019,2 - 0,0
17.09.2018 03:00:00 15,8 14,2 0 0 9 5 N 1019,4 - 0,0
17.09.2018 02:00:00 16,6 14,8 8 4 12 6 WNW 1019,9 8 0,0
17.09.2018 01:00:00 17,9 16,4 9 5 14 7 WSW 1020,5 - 0,0
17.09.2018 00:00:00 18,4 16,7 10 6 16 9 SSW 1020,6 - 0,0
16.09.2018 23:00:00 18,9 17,0 6 3 18 10 SSW 1020,8 10 0,0
16.09.2018 22:00:00 18,9 16,7 9 5 13 7 SW 1020,6 - 0,0
16.09.2018 21:00:00 19,3 16,7 9 5 16 9 SW 1020,3 - 0,0
16.09.2018 20:00:00 20,2 17,0 8 4 13 7 SW 1020,2 8 0,0
16.09.2018 19:00:00 21,3 16,9 4 2 18 10 WSW 1019,9 - 0,0
16.09.2018 18:00:00 21,4 17,0 10 5 16 9 SW 1019,8 - 0,0
16.09.2018 17:00:00 22,5 16,3 8 4 13 7 WSW 1019,7 7 0,0
16.09.2018 16:00:00 23,5 15,5 7 4 16 9 WSW 1019,8 - 0,0
16.09.2018 15:00:00 24,1 15,6 10 5 19 10 W 1020,0 - 0,0
16.09.2018 14:00:00 23,9 15,1 13 7 24 13 WSW 1020,1 15 0,0
16.09.2018 13:00:00 27,0 13,0 7 4 11 6 W 1020,1 - 0,0
16.09.2018 12:00:00 25,7 13,2 3 1 9 5 ENE 1020,4 - 0,0
16.09.2018 11:00:00 22,7 12,6 5 3 15 8 E 1020,0 20 0,0
16.09.2018 10:00:00 20,7 11,9 8 5 16 8 ENE 1019,8 - 0,0
16.09.2018 09:00:00 18,3 12,1 8 4 16 9 ENE 1019,6 - 0,0
16.09.2018 08:00:00 15,0 11,8 13 7 17 9 NE 1019,6 20 0,0
16.09.2018 07:00:00 15,3 10,3 9 5 16 9 ENE 1019,1 - 0,0

tt = Température de l'air
td = dewpoint
ff = Vitesse du vent
fx = gusts
dd = Direction du vent
ppp = reduced air pressure
vv = visibility
rr = Quantités de précipitations

stations d'obs. à proximité